Location: Izdebno
(52.6670°N, 16.2170°E)
Time: 06:29:24
(UTC+02:00)

Vanguard 2 Rocket - Pass Details

Date: 24 February 2024
Orbit: 555 x 3307 km, 32.9° (Epoch: 24 April)

Event Time Altitude Azimuth Distance (km) Brightness Sun altitude
Rises 20:01:37 0° 266° (W) 6,152 12.3 -24.5°
Reaches altitude 10° 20:06:38 10° 254° (WSW) 5,522 11.6 -25.2°
Maximum altitude 20:18:31 23° 211° (SSW) 5,078 10.7 -26.9°
Drops below altitude 10° 20:31:54 10° 169° (SSE) 6,232 10.8 -28.7°
Enters shadow 20:34:26 - 163° (SSE) 6,567 10.9 -29.1°
Sets 20:38:14 0° 157° (SSE) 7,106 - -29.6°
